Flag for China Weather past 2 weeks in Shenyang, Liaoning, China

Now
61 °F

Clear.


Feels Like: 61 °F
Forecast: 55 / 74 °F
Wind: 1 mph from North

Location: Shenyang / Taoxian

Current Time: Sep 20, 2014 at 10:41:32 PM

Latest Report: Sep 20, 2014 at 9:30 PM


Visibility: 10 mi

Pressure: 29.98 "Hg

Humidity: 77%

Dew point: 54 °F

Location of ShenyangLocation

Historic Weather in Shenyang — Graph

°F

Shenyang temperature yesterday

Maximum temperature yesterday: 82 °F (at 12:30 PM)
Minimum temperature yesterday: 52 °F (at 4:30 AM)
Average temperature yesterday: 68 °F

Past Weeks' High & Low Weather Summary

 TemperatureHumidityPressure
High86 °F (Sep 6, 1:00 PM)100% (Sep 8, 12:30 AM)30.15 "Hg (Sep 8, 12:30 AM)
Low41 °F (Sep 16, 4:30 AM)15% (Sep 9, 4:30 PM)29.68 "Hg (Sep 7, 4:30 PM)
Average65 °F57%29.95 "Hg
* Reported Sep 5 9:00 PM — Sep 20 9:00 PM, Shenyang, Weather by CustomWeather, © 2014

Note: Actual official high and low records may vary slightly from our data, if they occured in-between our weather recording intervals... More about our weather records

Advertising

Shenyang weather history for previous 24 hours

 ConditionsComfort  
Time TempWeatherWind HumidityBarometerVisibility
9:00 PM
Sep 20
63 °FClear.6 mph68%29.98 "Hg10 mi
8:30 PM63 °FPassing clouds.6 mph68%29.98 "HgN/A
8:00 PM63 °FPassing clouds.3 mph68%29.98 "HgN/A
7:30 PM63 °FPassing clouds.3 mph68%29.98 "HgN/A
7:00 PM63 °FClear.1 mph68%29.95 "Hg10 mi
6:30 PM61 °FClear.1 mph77%29.95 "Hg10 mi
6:00 PM63 °FClear.1 mph73%29.95 "Hg10 mi
5:30 PM63 °FPassing clouds.3 mph73%29.95 "HgN/A
5:00 PM63 °FSunny.1 mph73%29.92 "Hg10 mi
4:30 PM64 °FPassing clouds.3 mph73%29.92 "HgN/A
4:00 PM64 °FSunny.1 mph83%29.89 "Hg10 mi
3:30 PM64 °FPassing clouds.3 mph83%29.89 "HgN/A
3:00 PM63 °FPassing clouds.3 mph88%29.89 "HgN/A
2:30 PM63 °FPassing clouds.3 mph83%29.92 "HgN/A
2:00 PM63 °FSprinkles. Clear.3 mph77%29.92 "HgN/A
1:30 PM61 °FSprinkles. Passing clouds.6 mph83%29.92 "HgN/A
1:00 PM61 °FSprinkles. Passing clouds.6 mph88%29.95 "Hg4 mi
12:30 PM61 °FSprinkles. Passing clouds.3 mph94%29.95 "Hg4 mi
12:00 PM63 °FSprinkles. Passing clouds.6 mph88%29.95 "Hg4 mi
11:30 AM64 °FSprinkles. Passing clouds.10 mph73%29.98 "HgN/A
11:00 AM68 °FLight rain. Clear.8 mph56%29.95 "HgN/A
10:30 AM70 °FSunny.6 mph50%29.95 "Hg10 mi
10:00 AM70 °FPassing clouds.3 mph50%29.92 "HgN/A
9:00 AM70 °FPassing clouds.6 mph53%29.92 "HgN/A
8:30 AM66 °FSunny.8 mph60%29.92 "Hg10 mi
8:00 AM63 °FPassing clouds.6 mph68%29.92 "HgN/A
7:30 AM63 °FSunny.6 mph64%29.92 "Hg10 mi
7:00 AM59 °FSunny.6 mph72%29.92 "Hg10 mi
6:30 AM57 °FSunny.1 mph77%29.92 "Hg10 mi
6:00 AM57 °FSunny.8 mph72%29.89 "Hg10 mi
5:30 AM57 °FSunny.6 mph72%29.89 "Hg10 mi
5:00 AM57 °FClear.6 mph72%29.89 "Hg10 mi
4:30 AM57 °FClear.6 mph77%29.89 "Hg10 mi
4:00 AM57 °FClear.3 mph77%29.89 "Hg5 mi
3:30 AM59 °FClear.6 mph72%29.89 "Hg5 mi
3:00 AM59 °FClear.6 mph77%29.89 "Hg4 mi
2:30 AM59 °FClear.6 mph82%29.89 "Hg4 mi
2:00 AM59 °FClear.6 mph82%29.89 "Hg4 mi
1:30 AM59 °FFog.6 mph88%29.89 "Hg3 mi
1:00 AM59 °FClear.6 mph88%29.89 "Hg4 mi
12:30 AM59 °FClear.3 mph88%29.89 "Hg4 mi
12:00 AM61 °FClear.3 mph83%29.89 "Hg10 mi
11:30 PM
Sep 19
61 °FClear.6 mph83%29.89 "Hg10 mi
11:00 PM63 °FClear.3 mph77%29.89 "Hg10 mi
10:30 PM61 °FClear.3 mph77%29.89 "Hg10 mi
10:00 PM64 °FClear.3 mph73%29.89 "Hg10 mi
Weather by CustomWeather, © 2014

See weather overviewHow to use our weather pages